| time (UTC) | temp F | wind direction | speed MPH | gust MPH | rain 1hr in | rain 24hr in | rain mn in | humidity % | barometer mb |
| 20260505025033 | 71 | 149 | 4.0 | 6.0 | 0.00 | 0.00 | 0.00 | 54 | 1007.4 |
| 20260505024529 | 71 | 104 | 2.0 | 6.0 | 0.00 | 0.00 | 0.00 | 54 | 1007.4 |
| 20260505024027 | 71 | 64 | 3.0 | 3.0 | 0.00 | 0.00 | 0.00 | 54 | 1007.3 |
| 20260505023523 | 72 | 149 | 2.0 | 3.0 | 0.00 | 0.00 | 0.00 | 53 | 1007.3 |
| 20260505023021 | 72 | 99 | 4.0 | 8.0 | 0.00 | 0.00 | 0.00 | 52 | 1007.3 |
| 20260505022519 | 72 | 86 | 3.0 | 5.0 | 0.00 | 0.00 | 0.00 | 52 | 1007.2 |
| 20260505022016 | 72 | 138 | 3.0 | 6.0 | 0.00 | 0.00 | 0.00 | 52 | 1007.0 |
| 20260505021512 | 72 | 126 | 1.0 | 6.0 | 0.00 | 0.00 | 0.00 | 52 | 1006.9 |
| 20260505021009 | 72 | 91 | 4.0 | 7.0 | 0.00 | 0.00 | 0.00 | 52 | 1006.9 |
| 20260505020503 | 73 | 132 | 0.0 | 5.0 | 0.00 | 0.00 | 0.00 | 51 | 1006.8 |
| 20260505020000 | 73 | 103 | 4.0 | 6.0 | 0.00 | 0.00 | 0.00 | 50 | 1006.7 |
| 20260505015458 | 73 | 110 | 3.0 | 7.0 | 0.00 | 0.00 | 0.00 | 50 | 1006.6 |
| 20260505014954 | 73 | 65 | 3.0 | 8.0 | 0.00 | 0.00 | 0.00 | 49 | 1006.6 |
| 20260505014451 | 73 | 79 | 3.0 | 7.0 | 0.00 | 0.00 | 0.00 | 48 | 1006.8 |
| 20260505013949 | 73 | 120 | 2.0 | 6.0 | 0.00 | 0.00 | 0.00 | 48 | 1006.6 |
| 20260505013445 | 74 | 120 | 3.0 | 3.0 | 0.00 | 0.00 | 0.00 | 49 | 1006.6 |
| 20260505012943 | 74 | 154 | 3.0 | 5.0 | 0.00 | 0.00 | 0.00 | 48 | 1006.6 |
| 20260505012441 | 74 | 145 | 2.0 | 5.0 | 0.00 | 0.00 | 0.00 | 48 | 1006.5 |
| 20260505011937 | 74 | 174 | 3.0 | 5.0 | 0.00 | 0.00 | 0.00 | 48 | 1006.5 |
| 20260505011433 | 74 | 74 | 3.0 | 5.0 | 0.00 | 0.00 | 0.00 | 48 | 1006.6 |
| 20260505010930 | 75 | 120 | 1.0 | 5.0 | 0.00 | 0.00 | 0.00 | 47 | 1006.5 |
| 20260505010426 | 75 | 122 | 1.0 | 2.0 | 0.00 | 0.00 | 0.00 | 47 | 1006.6 |
| 20260505005922 | 75 | 141 | 1.0 | 2.0 | 0.00 | 0.00 | 0.00 | 46 | 1006.3 |
| 20260505005419 | 75 | 138 | 3.0 | 5.0 | 0.00 | 0.00 | 0.00 | 45 | 1006.6 |
| 20260505004917 | 76 | 104 | 3.0 | 3.0 | 0.00 | 0.00 | 0.00 | 46 | 1006.5 |
| 20260505004413 | 76 | 128 | 2.0 | 7.0 | 0.00 | 0.00 | 0.00 | 45 | 1006.4 |
| 20260505003910 | 76 | 151 | 4.0 | 5.0 | 0.00 | 0.00 | 0.00 | 45 | 1006.2 |
| 20260505003407 | 77 | 145 | 3.0 | 7.0 | 0.00 | 0.00 | 0.00 | 45 | 1006.4 |
| 20260505002904 | 77 | 155 | 5.0 | 7.0 | 0.00 | 0.00 | 0.00 | 44 | 1006.2 |
| 20260505002400 | 77 | 138 | 2.0 | 10.0 | 0.00 | 0.00 | 0.00 | 43 | 1006.4 |
| 20260505001859 | 77 | 147 | 1.0 | 3.0 | 0.00 | 0.00 | 0.00 | 44 | 1006.3 |
| 20260505001355 | 78 | 158 | 4.0 | 9.0 | 0.00 | 0.00 | 0.00 | 44 | 1006.1 |
| 20260505000853 | 78 | 133 | 6.0 | 10.0 | 0.00 | 0.00 | 0.00 | 43 | 1006.1 |
| 20260505000351 | 79 | 151 | 4.0 | 8.0 | 0.00 | 0.00 | 0.00 | 42 | 1006.2 |
| 20260504235847 | 79 | 158 | 3.0 | 8.0 | 0.00 | 0.00 | 0.00 | 42 | 1006.4 |
| 20260504235344 | 79 | 246 | 8.0 | 10.0 | 0.00 | 0.00 | 0.00 | 41 | 1006.4 |
| 20260504234840 | 79 | 172 | 7.0 | 13.0 | 0.00 | 0.00 | 0.00 | 42 | 1006.3 |
| 20260504234338 | 79 | 217 | 6.0 | 13.0 | 0.00 | 0.00 | 0.00 | 40 | 1006.2 |
| 20260504233835 | 79 | 177 | 2.0 | 5.0 | 0.00 | 0.00 | 0.00 | 41 | 1006.4 |
| 20260504233330 | 79 | 154 | 3.0 | 13.0 | 0.00 | 0.00 | 0.00 | 41 | 1006.3 |
| 20260504232827 | 80 | 178 | 8.0 | 10.0 | 0.00 | 0.00 | 0.00 | 39 | 1006.1 |
| 20260504232324 | 80 | 242 | 5.0 | 8.0 | 0.00 | 0.00 | 0.00 | 39 | 1006.2 |
| 20260504231821 | 80 | 180 | 7.0 | 7.0 | 0.00 | 0.00 | 0.00 | 39 | 1006.2 |
| 20260504231318 | 80 | 161 | 7.0 | 14.0 | 0.00 | 0.00 | 0.00 | 38 | 1006.6 |
| 20260504230814 | 80 | 262 | 6.0 | 11.0 | 0.00 | 0.00 | 0.00 | 39 | 1006.3 |
| 20260504230312 | 80 | 177 | 9.0 | 16.0 | 0.00 | 0.00 | 0.00 | 39 | 1006.1 |
| 20260504225810 | 80 | 249 | 7.0 | 10.0 | 0.00 | 0.00 | 0.00 | 40 | 1006.1 |
| 20260504225306 | 80 | 180 | 3.0 | 11.0 | 0.00 | 0.00 | 0.00 | 40 | 1006.3 |
| 20260504224803 | 80 | 184 | 3.0 | 7.0 | 0.00 | 0.00 | 0.00 | 39 | 1006.2 |
| 20260504224301 | 81 | 207 | 9.0 | 17.0 | 0.00 | 0.00 | 0.00 | 38 | 1006.3 |
| 20260504223757 | 80 | 111 | 4.0 | 8.0 | 0.00 | 0.00 | 0.00 | 39 | 1006.1 |
| 20260504223253 | 81 | 218 | 4.0 | 10.0 | 0.00 | 0.00 | 0.00 | 38 | 1006.3 |
| 20260504222750 | 80 | 250 | 9.0 | 15.0 | 0.00 | 0.00 | 0.00 | 38 | 1006.3 |
| 20260504222246 | 80 | 216 | 6.0 | 8.0 | 0.00 | 0.00 | 0.00 | 39 | 1006.5 |
| 20260504221744 | 81 | 152 | 5.0 | 14.0 | 0.00 | 0.00 | 0.00 | 39 | 1006.5 |
| 20260504221241 | 81 | 189 | 8.0 | 22.0 | 0.00 | 0.00 | 0.00 | 38 | 1006.2 |
| 20260504220738 | 81 | 69 | 6.0 | 14.0 | 0.00 | 0.00 | 0.00 | 37 | 1006.4 |
| 20260504220235 | 81 | 151 | 8.0 | 14.0 | 0.00 | 0.00 | 0.00 | 39 | 1006.3 |
| 20260504215732 | 82 | 193 | 5.0 | 21.0 | 0.00 | 0.00 | 0.00 | 37 | 1006.6 |
| 20260504215229 | 81 | 179 | 4.0 | 6.0 | 0.00 | 0.00 | 0.00 | 38 | 1006.5 |
| 20260504214725 | 81 | 213 | 4.0 | 10.0 | 0.00 | 0.00 | 0.00 | 38 | 1006.5 |
| 20260504214221 | 81 | 242 | 7.0 | 16.0 | 0.00 | 0.00 | 0.00 | 37 | 1006.7 |
| 20260504213718 | 81 | 266 | 5.0 | 10.0 | 0.00 | 0.00 | 0.00 | 37 | 1006.7 |
| 20260504213209 | 81 | 187 | 7.0 | 13.0 | 0.00 | 0.00 | 0.00 | 37 | 1006.6 |
| 20260504212706 | 81 | 138 | 10.0 | 15.0 | 0.00 | 0.00 | 0.00 | 36 | 1006.6 |
| 20260504212203 | 81 | 169 | 3.0 | 11.0 | 0.00 | 0.00 | 0.00 | 38 | 1006.4 |
| 20260504211700 | 82 | 139 | 13.0 | 15.0 | 0.00 | 0.00 | 0.00 | 36 | 1006.6 |
| 20260504211155 | 81 | 240 | 5.0 | 13.0 | 0.00 | 0.00 | 0.00 | 37 | 1006.9 |
| 20260504210653 | 81 | 186 | 6.0 | 14.0 | 0.00 | 0.00 | 0.00 | 36 | 1006.8 |
| 20260504210150 | 82 | 150 | 2.0 | 15.0 | 0.00 | 0.00 | 0.00 | 35 | 1007.0 |
| 20260504205647 | 82 | 161 | 9.0 | 18.0 | 0.00 | 0.00 | 0.00 | 34 | 1006.9 |
| 20260504205144 | 82 | 213 | 3.0 | 15.0 | 0.00 | 0.00 | 0.00 | 35 | 1006.9 |
| 20260504204643 | 82 | 219 | 10.0 | 17.0 | 0.00 | 0.00 | 0.00 | 35 | 1007.1 |
| 20260504204141 | 82 | 261 | 9.0 | 11.0 | 0.00 | 0.00 | 0.00 | 35 | 1007.2 |
| 20260504203640 | 82 | 270 | 2.0 | 7.0 | 0.00 | 0.00 | 0.00 | 34 | 1007.0 |
| 20260504203137 | 82 | 227 | 4.0 | 13.0 | 0.00 | 0.00 | 0.00 | 35 | 1007.2 |
| 20260504202637 | 82 | 137 | 6.0 | 8.0 | 0.00 | 0.00 | 0.00 | 34 | 1007.0 |
| 20260504202135 | 82 | 117 | 5.0 | 10.0 | 0.00 | 0.00 | 0.00 | 35 | 1007.2 |
| 20260504201631 | 82 | 254 | 8.0 | 15.0 | 0.00 | 0.00 | 0.00 | 35 | 1007.4 |
| 20260504201129 | 82 | 134 | 7.0 | 9.0 | 0.00 | 0.00 | 0.00 | 34 | 1007.4 |
| 20260504200626 | 81 | 239 | 8.0 | 15.0 | 0.00 | 0.00 | 0.00 | 34 | 1007.4 |
| 20260504200123 | 81 | 89 | 6.0 | 16.0 | 0.00 | 0.00 | 0.00 | 34 | 1007.4 |
| 20260504195618 | 81 | 175 | 4.0 | 23.0 | 0.00 | 0.00 | 0.00 | 35 | 1007.4 |
| 20260504195115 | 81 | 244 | 3.0 | 16.0 | 0.00 | 0.00 | 0.00 | 35 | 1007.4 |
| 20260504194612 | 81 | 209 | 5.0 | 13.0 | 0.00 | 0.00 | 0.00 | 34 | 1007.5 |
| 20260504194107 | 81 | 158 | 11.0 | 14.0 | 0.00 | 0.00 | 0.00 | 35 | 1007.4 |
| 20260504193604 | 81 | 168 | 10.0 | 17.0 | 0.00 | 0.00 | 0.00 | 34 | 1007.3 |
| 20260504193103 | 81 | 262 | 7.0 | 17.0 | 0.00 | 0.00 | 0.00 | 34 | 1007.5 |
| 20260504192600 | 81 | 179 | 11.0 | 22.0 | 0.00 | 0.00 | 0.00 | 33 | 1007.5 |
| 20260504192058 | 81 | 140 | 4.0 | 10.0 | 0.00 | 0.00 | 0.00 | 34 | 1007.4 |
| 20260504191555 | 81 | 235 | 5.0 | 11.0 | 0.00 | 0.00 | 0.00 | 35 | 1007.6 |
| 20260504191046 | 81 | 208 | 9.0 | 16.0 | 0.00 | 0.00 | 0.00 | 34 | 1007.6 |
| 20260504190543 | 82 | 89 | 6.0 | 14.0 | 0.00 | 0.00 | 0.00 | 34 | 1007.5 |
| 20260504190039 | 81 | 294 | 6.0 | 15.0 | 0.00 | 0.00 | 0.00 | 32 | 1007.4 |
| 20260504185536 | 81 | 188 | 5.0 | 14.0 | 0.00 | 0.00 | 0.00 | 34 | 1007.7 |
| 20260504185032 | 81 | 194 | 5.0 | 15.0 | 0.00 | 0.00 | 0.00 | 33 | 1007.6 |
| 20260504184528 | 81 | 153 | 9.0 | 15.0 | 0.00 | 0.00 | 0.00 | 31 | 1007.6 |
| 20260504184023 | 81 | 228 | 5.0 | 9.0 | 0.00 | 0.00 | 0.00 | 36 | 1007.9 |
| 20260504183521 | 81 | 192 | 9.0 | 14.0 | 0.00 | 0.00 | 0.00 | 35 | 1007.9 |
| 20260504183019 | 81 | 166 | 3.0 | 15.0 | 0.00 | 0.00 | 0.00 | 32 | 1008.0 |
| 20260504182515 | 81 | 235 | 8.0 | 14.0 | 0.00 | 0.00 | 0.00 | 31 | 1008.3 |
| 20260504182013 | 80 | 145 | 6.0 | 14.0 | 0.00 | 0.00 | 0.00 | 34 | 1007.9 |
| 20260504181510 | 80 | 154 | 3.0 | 17.0 | 0.00 | 0.00 | 0.00 | 36 | 1008.2 |
| 20260504181009 | 80 | 131 | 4.0 | 21.0 | 0.00 | 0.00 | 0.00 | 35 | 1008.7 |
| 20260504180507 | 80 | 162 | 10.0 | 11.0 | 0.00 | 0.00 | 0.00 | 33 | 1008.8 |
| 20260504180005 | 80 | 239 | 12.0 | 18.0 | 0.00 | 0.00 | 0.00 | 34 | 1008.4 |
| 20260504175502 | 80 | 152 | 10.0 | 14.0 | 0.00 | 0.00 | 0.00 | 35 | 1008.4 |
| 20260504174959 | 80 | 192 | 12.0 | 17.0 | 0.00 | 0.00 | 0.00 | 34 | 1008.4 |
| 20260504174456 | 79 | 263 | 6.0 | 10.0 | 0.00 | 0.00 | 0.00 | 37 | 1008.4 |
| 20260504173953 | 79 | 235 | 6.0 | 10.0 | 0.00 | 0.00 | 0.00 | 36 | 1008.4 |
| 20260504173450 | 79 | 235 | 10.0 | 25.0 | 0.00 | 0.00 | 0.00 | 35 | 1008.9 |
| 20260504172948 | 79 | 209 | 7.0 | 14.0 | 0.00 | 0.00 | 0.00 | 38 | 1008.7 |
| 20260504172443 | 78 | 208 | 8.0 | 14.0 | 0.00 | 0.00 | 0.00 | 38 | 1008.6 |
| 20260504171940 | 78 | 184 | 9.0 | 13.0 | 0.00 | 0.00 | 0.00 | 38 | 1008.7 |
| 20260504171437 | 78 | 259 | 6.0 | 11.0 | 0.00 | 0.00 | 0.00 | 38 | 1008.8 |
| 20260504170934 | 78 | 237 | 5.0 | 10.0 | 0.00 | 0.00 | 0.00 | 40 | 1008.9 |
| 20260504170430 | 78 | 256 | 9.0 | 14.0 | 0.00 | 0.00 | 0.00 | 39 | 1009.1 |
| 20260504160349 | 76 | 179 | 4.0 | 18.0 | 0.00 | 0.00 | 0.00 | 41 | 1009.4 |
| 20260504150814 | 75 | 216 | 5.0 | 9.0 | 0.00 | 0.00 | 0.00 | 44 | 1009.8 |
| 20260504150311 | 75 | 265 | 2.0 | 6.0 | 0.00 | 0.00 | 0.00 | 44 | 1009.8 |
| 20260504141241 | 70 | 160 | 1.0 | 6.0 | 0.00 | 0.00 | 0.00 | 53 | 1010.1 |
| 20260504140737 | 70 | 213 | 2.0 | 5.0 | 0.00 | 0.00 | 0.00 | 54 | 1010.2 |
| 20260504140233 | 69 | 144 | 4.0 | 7.0 | 0.00 | 0.00 | 0.00 | 54 | 1010.3 |
| 20260504130702 | 63 | 133 | 0.0 | 0.0 | 0.00 | 0.00 | 0.00 | 74 | 1010.5 |
| 20260504130158 | 62 | 173 | 0.0 | 0.0 | 0.00 | 0.00 | 0.00 | 76 | 1010.7 |
| 20260504120122 | 56 | 138 | 0.0 | 0.0 | 0.00 | 0.00 | 0.00 | 90 | 1010.4 |
| 20260504110549 | 56 | 148 | 0.0 | 2.0 | 0.00 | 0.00 | 0.00 | 89 | 1010.0 |
| 20260504100511 | 57 | 123 | 0.0 | 0.0 | 0.00 | 0.00 | 0.00 | 85 | 1010.1 |
| 20260504081904 | 58 | 167 | 0.0 | 0.0 | 0.00 | 0.00 | 0.00 | 78 | 1010.4 |
| 20260504081401 | 58 | 123 | 0.0 | 0.0 | 0.00 | 0.00 | 0.00 | 78 | 1010.0 |
| 20260504080856 | 59 | 141 | 0.0 | 0.0 | 0.00 | 0.00 | 0.00 | 77 | 1010.4 |
| 20260504080354 | 59 | 140 | 0.0 | 1.0 | 0.00 | 0.00 | 0.00 | 77 | 1010.3 |
| 20260504070321 | 62 | 175 | 0.0 | 0.0 | 0.00 | 0.00 | 0.00 | 70 | 1010.6 |
| 20260504060241 | 63 | 109 | 1.0 | 1.0 | 0.00 | 0.00 | 0.00 | 64 | 1011.4 |
| 20260504050709 | 62 | 140 | 1.0 | 2.0 | 0.00 | 0.00 | 0.00 | 66 | 1012.1 |
| 20260504050206 | 61 | 176 | 0.0 | 1.0 | 0.00 | 0.00 | 0.00 | 70 | 1012.3 |
| 20260504045703 | 61 | 122 | 0.0 | 1.0 | 0.00 | 0.00 | 0.00 | 71 | 1012.2 |
| 20260504045158 | 61 | 142 | 0.0 | 1.0 | 0.00 | 0.00 | 0.00 | 70 | 1012.3 |
| 20260504044656 | 62 | 148 | 0.0 | 0.0 | 0.00 | 0.00 | 0.00 | 69 | 1012.5 |
| 20260504044153 | 62 | 129 | 1.0 | 5.0 | 0.00 | 0.00 | 0.00 | 68 | 1012.4 |
| 20260504043650 | 62 | 102 | 1.0 | 2.0 | 0.00 | 0.00 | 0.00 | 70 | 1012.5 |
| 20260504043147 | 62 | 104 | 0.0 | 0.0 | 0.00 | 0.00 | 0.00 | 69 | 1012.5 |
| 20260504042644 | 62 | 134 | 0.0 | 1.0 | 0.00 | 0.00 | 0.00 | 67 | 1012.6 |
| 20260504042141 | 62 | 102 | 1.0 | 1.0 | 0.00 | 0.00 | 0.00 | 67 | 1012.5 |
| 20260504041636 | 62 | 103 | 1.0 | 2.0 | 0.00 | 0.00 | 0.00 | 66 | 1012.7 |
| 20260504041133 | 62 | 101 | 1.0 | 2.0 | 0.00 | 0.00 | 0.00 | 67 | 1012.7 |
| 20260504040630 | 62 | 93 | 2.0 | 2.0 | 0.00 | 0.00 | 0.00 | 65 | 1012.7 |
| 20260504040127 | 62 | 120 | 0.0 | 0.0 | 0.00 | 0.00 | 0.00 | 67 | 1012.6 |
| 20260504035624 | 62 | 103 | 0.0 | 0.0 | 0.00 | 0.00 | 0.00 | 66 | 1012.8 |
| 20260504035120 | 63 | 155 | 0.0 | 0.0 | 0.00 | 0.00 | 0.00 | 65 | 1012.8 |
| 20260504034618 | 63 | 170 | 0.0 | 0.0 | 0.00 | 0.00 | 0.00 | 65 | 1012.9 |
| 20260504034115 | 63 | 102 | 0.0 | 0.0 | 0.00 | 0.00 | 0.00 | 62 | 1012.8 |
| 20260504033613 | 63 | 120 | 1.0 | 1.0 | 0.00 | 0.00 | 0.00 | 63 | 1012.8 |
| 20260504033110 | 64 | 158 | 1.0 | 1.0 | 0.00 | 0.00 | 0.00 | 64 | 1012.8 |
| 20260504032606 | 65 | 166 | 0.0 | 0.0 | 0.00 | 0.00 | 0.00 | 60 | 1012.8 |
| 20260504032104 | 65 | 106 | 3.0 | 3.0 | 0.00 | 0.00 | 0.00 | 58 | 1012.9 |
| 20260504031601 | 65 | 135 | 2.0 | 6.0 | 0.00 | 0.00 | 0.00 | 57 | 1012.9 |
| 20260504031056 | 65 | 93 | 1.0 | 5.0 | 0.00 | 0.00 | 0.00 | 57 | 1012.9 |
| 20260504030554 | 65 | 101 | 4.0 | 7.0 | 0.00 | 0.00 | 0.00 | 56 | 1012.8 |
| 20260504030050 | 65 | 120 | 3.0 | 6.0 | 0.00 | 0.00 | 0.00 | 56 | 1012.6 |
| 20260504025547 | 66 | 145 | 3.0 | 6.0 | 0.00 | 0.00 | 0.00 | 56 | 1012.7 |